GFSFLT2_700_temp_021.txt.gz
Temp
6 6 6 5 5 6 6 6 6 6 5 5 5 5 5 5 5 4 4 4 4 4 4 4 4 3 4 4 4 3 3 3
6 6 6 6 6 6 6 6 6 5 5 4 4 4 4 4 4 4 3 3 3 4 4 3 3 3 3 3 3 3 3 3
5 4 5 5 5 5 5 5 5 5 4 4 4 4 4 4 4 4 3 3 3 3 3 3 3 3 3 2 2 2 2 2
5 5 5 5 5 5 5 5 4 4 4 4 4 3 3 3 3 3 3 3 3 3 3 2 2 2 2 2 2 2 2 2
3 5 5 4 4 4 4 4 4 4 4 3 3 3 3 3 3 3 3 3 2 2 2 2 2 2 2 1 1 2 2 1
4 5 4 4 4 4 4 4 3 3 3 3 3 3 3 3 2 2 2 2 2 1 1 1 1 1 1 1 1 1 1 1
3 4 4 4 4 3 3 3 3 3 3 3 2 2 2 2 2 2 2 1 1 1 1 1 1 1 1 1 1 1 1 1
3 2 4 4 4 3 3 3 3 2 2 2 2 1 1 1 1 1 1 1 1 1 1 1 1 1 1 1 1 1 1 1
3 2 4 4 3 3 3 3 2 2 2 2 2 1 0 0 -0 -0 -0 -0 -0 0 1 1 1 1 0 1 1 1 1 0
3 4 4 4 3 3 3 2 2 2 1 1 1 0 0 0 0 -0 -0 0 0 0 1 1 1 1 0 0 0 -0 0 1
4 4 3 3 3 3 3 2 2 1 1 0 0 -0 0 -0 -0 -0 -0 -0 0 -0 0 0 0 0 0 -0 -0 0 -0 -0
4 4 4 4 3 3 2 2 1 1 1 0 -0 -0 -1 -1 -1 -1 -0 -0 -1 -1 -1 -1 -1 -1 -1 -1 -1 -2 -1 -0
4 4 3 3 3 2 2 2 1 1 0 0 -0 -0 -1 -1 -1 -2 -2 -2 -1 -1 -1 -1 -1 -1 -2 -1 -1 -1 -1 -1
3 3 3 2 2 2 2 1 1 0 -0 -1 -1 -1 -1 -1 -1 -2 -2 -2 -2 -2 -2 -2 -2 -2 -2 -2 -2 -2 -3 -3
3 3 2 2 1 1 1 1 -0 -1 -1 -1 -2 -2 -2 -2 -2 -2 -2 -2 -2 -2 -2 -3 -2 -2 -2 -3 -3 -3 -4 -4
2 2 1 1 1 1 0 -0 -1 -2 -1 -2 -1 -2 -2 -2 -2 -2 -3 -3 -3 -3 -3 -3 -3 -2 -3 -3 -5 -5 -4 -4
2 1 1 1 0 0 -0 -1 -2 -2 -2 -1 -1 -2 -2 -3 -3 -3 -4 -4 -4 -3 -3 -3 -3 -4 -4 -4 -4 -5 -6 -6
1 0 -0 -1 -1 -1 -1 -1 -1 -1 -1 -1 -1 -2 -3 -4 -5 -5 -4 -4 -4 -4 -4 -4 -4 -4 -5 -5 -6 -6 -6 -7
-0 -1 -1 -1 -1 -1 -1 -1 -2 -2 -2 -3 -3 -4 -4 -5 -5 -5 -5 -4 -4 -5 -5 -5 -6 -7 -7 -8 -8 -8 -8 -8
-1 -1 -1 -1 -1 -1 -2 -2 -3 -3 -3 -4 -4 -4 -4 -5 -5 -5 -5 -6 -7 -7 -8 -9 -9 -10 -10 -10 -10 -10 -10 -10

GFSFLT2_700_temp_024.txt.gz
Temp
7 7 7 7 6 6 6 6 6 5 6 5 5 5 5 4 4 4 4 4 4 4 4 4 4 4 4 4 4 4 4 4
7 7 6 6 6 6 6 6 5 5 5 5 5 4 4 4 4 4 4 4 3 3 3 3 3 3 3 3 3 3 3 3
6 6 5 6 6 6 5 5 5 5 5 4 5 4 5 5 4 4 4 3 3 3 3 3 3 3 3 3 2 2 3 2
5 5 5 5 5 5 5 5 5 5 5 4 4 4 4 3 3 3 3 3 3 3 2 2 2 2 2 2 3 3 2 2
3 4 5 5 4 4 4 4 4 4 4 3 3 3 3 3 3 3 3 3 3 3 2 2 3 2 2 2 2 2 2 2
4 5 4 4 4 4 4 4 4 3 4 3 3 3 3 3 2 2 2 2 2 2 2 1 1 2 2 2 2 2 2 1
3 4 4 5 4 4 4 4 4 3 3 3 3 3 2 2 2 2 2 1 1 1 1 1 1 1 1 2 2 2 2 1
4 4 5 5 4 4 4 4 3 3 3 3 2 2 2 2 2 1 1 1 1 1 1 1 2 2 2 1 2 2 1 1
4 4 3 5 4 4 3 3 3 2 2 2 2 2 2 1 1 1 1 1 1 1 1 1 1 1 2 2 2 2 2 1
3 4 3 4 4 4 3 3 3 2 2 2 1 2 1 1 1 1 0 0 0 0 0 0 0 0 1 1 0 1 1 2
4 3 3 4 4 4 3 3 2 2 2 1 1 1 1 0 -0 -0 -0 0 0 0 0 -0 -1 -0 -0 0 -0 -0 -0 -0
4 4 4 4 3 3 3 3 2 2 2 1 1 1 0 -0 -1 -1 -1 -1 -1 -1 -1 -1 -1 -1 -1 -1 -1 -1 -2 -2
4 4 3 3 3 3 2 2 2 1 0 -0 -0 -1 -1 -1 -1 -1 -1 -1 -2 -2 -2 -2 -2 -2 -2 -1 -1 -1 -1 -1
4 4 3 3 2 2 2 2 1 1 0 -0 -1 -2 -1 -2 -2 -2 -2 -2 -2 -2 -2 -2 -2 -3 -3 -2 -2 -1 -2 -2
3 3 3 3 2 1 1 1 1 -0 -1 -1 -2 -2 -2 -2 -2 -2 -2 -2 -3 -3 -3 -4 -3 -3 -3 -4 -4 -3 -3 -2
3 2 2 2 2 1 1 0 -0 -1 -1 -1 -2 -2 -2 -2 -2 -3 -3 -3 -4 -4 -4 -4 -4 -4 -4 -4 -5 -6 -5 -3
2 2 1 1 1 0 0 -0 -1 -1 -1 -1 -1 -1 -2 -3 -3 -3 -4 -4 -5 -4 -4 -5 -5 -5 -5 -4 -5 -5 -7 -7
2 1 0 -1 -1 -1 -0 -0 -0 -0 -1 -1 -2 -2 -3 -4 -4 -4 -4 -4 -5 -6 -5 -5 -5 -6 -7 -7 -6 -6 -6 -8
1 1 -0 -1 -1 -2 -2 -2 -2 -2 -3 -3 -3 -4 -4 -4 -5 -5 -5 -6 -6 -6 -7 -7 -8 -9 -9 -9 -9 -9 -9 -9
-1 -0 -1 -1 -1 -1 -2 -3 -3 -3 -3 -4 -5 -5 -5 -6 -6 -6 -7 -7 -8 -8 -10 -10 -11 -11 -11 -11 -11 -11 -10 -10

GFSFLT2_700_temp_027.txt.gz
Temp
7 7 7 7 7 7 7 7 6 6 6 6 5 5 5 5 4 4 4 4 4 4 4 4 4 3 3 3 3 3 3 3
7 6 6 7 7 7 7 6 6 5 6 5 5 5 4 4 4 4 4 4 4 4 3 3 3 3 3 3 3 3 3 3
7 7 7 6 6 6 6 5 6 5 5 5 5 4 5 4 4 4 4 4 4 3 3 3 3 3 3 3 3 3 3 3
7 6 7 6 6 5 5 5 5 5 5 5 5 4 4 4 4 4 4 4 4 3 3 3 3 3 3 3 3 3 2 2
6 5 5 5 6 5 6 5 5 5 4 4 4 4 3 3 3 3 3 3 3 3 2 2 3 3 3 2 2 2 2 2
5 4 5 4 4 5 5 5 4 5 4 4 4 4 3 3 3 3 2 3 2 2 2 2 2 2 2 3 2 2 2 1
5 5 4 4 5 4 4 4 3 4 4 3 3 3 3 3 3 2 2 2 1 1 1 1 1 1 1 2 2 2 2 2
5 5 4 4 4 4 4 4 4 3 3 3 3 3 2 2 2 2 1 1 1 1 1 1 1 1 2 1 2 2 2 2
3 3 3 3 4 4 4 4 4 3 3 3 3 3 2 2 1 1 0 1 0 0 0 -0 0 0 0 0 1 1 2 2
3 3 3 1 3 4 4 3 3 2 2 2 2 2 2 1 1 0 -0 -0 -0 -0 -0 -0 0 0 0 0 -0 -0 -0 1
4 4 4 3 3 3 3 3 3 2 2 2 1 1 1 1 0 -0 -0 -1 -1 -1 -1 -1 -1 -1 -0 0 -0 -0 -0 -1
5 4 3 3 3 3 3 3 2 2 2 1 1 0 -0 -1 -1 -1 -1 -1 -1 -1 -1 -1 -2 -2 -1 -1 -1 -1 -1 -1
5 4 4 4 3 3 2 2 2 1 -0 -1 -1 -1 -1 -1 -2 -1 -1 -2 -2 -2 -2 -2 -2 -2 -2 -2 -2 -2 -2 -2
4 4 3 3 3 3 2 1 1 0 0 0 -0 -1 -1 -1 -2 -2 -2 -2 -2 -2 -2 -2 -2 -4 -4 -4 -4 -3 -3 -3
3 3 3 2 2 2 1 1 0 -0 -1 -1 -2 -2 -2 -2 -2 -3 -3 -3 -3 -3 -3 -3 -4 -4 -5 -5 -5 -4 -4 -3
3 3 3 3 2 2 1 0 -0 -1 -1 -1 -1 -1 -1 -2 -3 -3 -3 -4 -4 -4 -4 -4 -4 -4 -5 -6 -7 -7 -6 -5
2 2 2 2 2 1 0 -0 -0 -0 -0 -0 -1 -2 -2 -3 -3 -4 -4 -4 -5 -5 -5 -5 -5 -6 -6 -6 -7 -7 -8 -8
3 2 1 -1 -1 -1 -1 -1 -1 -2 -2 -2 -2 -3 -4 -4 -4 -4 -5 -5 -5 -5 -6 -6 -7 -8 -8 -9 -9 -9 -9 -10
1 1 -0 -1 -1 -2 -2 -3 -3 -4 -4 -4 -4 -4 -4 -5 -5 -5 -5 -6 -6 -7 -8 -9 -10 -11 -11 -11 -12 -11 -11 -11
-1 -2 -2 -2 -1 -1 -2 -3 -3 -4 -4 -4 -4 -5 -6 -6 -6 -6 -7 -7 -8 -9 -10 -11 -10 -11 -11 -12 -12 -12 -12 -11

GFSFLT2_700_temp_033.txt.gz
Temp
6 6 7 7 7 7 7 6 6 6 6 5 5 5 5 5 4 4 4 4 4 4 4 3 3 3 3 3 3 3 3 3
6 6 7 7 6 6 6 6 6 6 5 5 5 5 4 4 4 4 4 4 4 3 3 3 3 2 2 2 2 2 2 2
6 6 6 6 6 6 6 6 6 5 5 5 5 5 5 4 4 4 4 4 3 3 3 3 2 2 2 1 1 1 1 2
5 6 6 6 6 6 5 5 5 5 5 5 5 5 4 4 4 4 3 3 3 3 2 2 2 2 2 1 1 1 1 1
5 5 5 5 5 5 5 5 5 4 5 5 4 4 4 4 3 3 2 2 2 2 2 2 2 2 2 2 1 1 1 1
4 5 5 5 5 5 5 5 5 4 4 4 4 3 3 3 3 2 2 1 1 1 1 1 1 1 1 1 1 1 1 1
5 5 5 4 4 5 5 5 5 4 4 3 3 3 3 2 2 2 1 1 1 1 1 0 0 0 0 1 1 1 1 1
5 5 5 4 5 5 4 4 4 4 3 3 3 2 2 2 1 1 1 0 0 0 -0 0 0 0 0 0 0 1 1 1
4 4 5 4 4 4 4 3 3 3 3 3 2 2 2 2 1 1 1 0 0 -0 -0 -0 -0 -1 -0 -0 0 0 0 0
4 4 4 3 3 3 3 3 3 3 2 2 2 2 2 2 1 1 0 0 -0 -1 -1 -1 -1 -0 0 0 0 0 0 0
3 3 3 2 1 2 3 3 3 2 2 1 1 1 0 -0 -0 -1 -1 -1 -2 -2 -2 -2 -1 -1 -1 -1 -1 -1 -1 -1
3 3 2 2 2 2 3 2 2 2 1 1 -0 -1 -1 -1 -2 -2 -2 -2 -2 -3 -2 -2 -2 -2 -1 -1 -2 -2 -2 -2
4 3 3 2 2 2 2 2 1 1 0 -0 -1 -2 -2 -2 -2 -2 -2 -3 -3 -2 -2 -2 -2 -2 -2 -2 -3 -2 -2 -3
4 3 2 2 2 1 1 1 -0 -1 -2 -2 -2 -2 -2 -2 -2 -3 -3 -4 -4 -3 -3 -3 -4 -4 -4 -4 -3 -3 -3 -3
3 2 2 1 1 1 -0 -1 -1 -2 -2 -2 -2 -2 -2 -2 -3 -3 -3 -3 -4 -4 -4 -4 -5 -5 -5 -5 -5 -5 -5 -5
2 2 1 1 1 -0 -1 -1 -0 -0 -0 -1 -1 -1 -1 -2 -3 -3 -4 -4 -5 -5 -5 -6 -6 -6 -6 -7 -7 -7 -7 -6
2 2 2 1 1 1 1 0 -0 -1 -1 -2 -2 -3 -3 -3 -4 -5 -5 -5 -5 -6 -6 -6 -7 -7 -7 -7 -8 -8 -9 -10
2 2 2 1 1 0 -1 -1 -2 -2 -3 -3 -4 -5 -5 -5 -6 -6 -6 -7 -7 -7 -8 -8 -8 -9 -9 -9 -10 -10 -11 -12
1 -0 -1 -1 -1 -2 -2 -2 -3 -3 -4 -4 -5 -6 -6 -6 -7 -7 -7 -8 -8 -8 -9 -9 -10 -10 -11 -11 -12 -12 -13 -13
-1 -1 -1 -2 -2 -2 -2 -3 -3 -4 -4 -5 -6 -7 -7 -8 -9 -9 -9 -10 -10 -10 -10 -10 -11 -11 -12 -12 -13 -13 -14 -14